www.pogodaiklimat.ru

Погода и климат >> Архив погоды >> Вьетнам >> Донгхой


ПОГОДА в Донгхое

  • Прогноз погоды в Донгхое
  • Монитор погоды в Донгхое

АРХИВ ПОГОДЫ в Донгхое

Время (UTC), дата Ветер
(напр.,м/с)
 
Видим.   Явления Облачность Т
(С)
Тd
(С)
f
(%)
Тe
(С)
Тes
(С)
Комфортность P
(гПа)
Po
(гПа)
Тmin
(С)
Tmax
(С)
R
(мм)
R24
(мм)
S
(см)
00 14.06 ЮВ 1 20 км 9/9 600 м
[Cu Sc]
+31.6 +23.5 62 +42 +43 опасность
перегрева
1003.4 1002.6 +31.5
03 14.06 ЮЗ 1 20 км 9/9 600 м
[Cu Sc]
+33.8 +25.0 60 +47 +49 опасность
перегрева
1004.4 1003.6
06 14.06 З 4 20 км 9/3 600 м
[Cu med, cong Cs]
+35.7 +24.9 54 +49 +57 опасность
перегрева
1003.3 1002.5
09 14.06 Ю 2 20 км 10/3 600 м
[Cu med, cong Cs]
+34.6 +24.7 57 +48 +51 опасность
перегрева
1001.4 1000.6
12 14.06 штиль 0 20 км 9/3 600 м
[Cb cap Cs]
+33.0 +25.1 63 +47 +47 опасность
перегрева
1002.8 1002.0 +36.2
15 14.06 штиль 0 20 км 9/9 600 м
[Cb cap]
+32.0 +26.3 72 +48 +48 опасность
перегрева
1005.1 1004.3
18 14.06 Ю 1 20 км 9/9 600 м
[Cu Sc]
+32.0 +25.7 69 +47 +47 опасность
перегрева
1003.7 1002.9
21 14.06 Ю 4 20 км 9/3 600 м
[Cb cap Cs]
+31.8 +25.4 69 +46 +46 опасность
перегрева
1002.5 1001.7
00 15.06 З 3 20 км 9/9 600 м
[Cu Sc]
+32.0 +24.6 65 +45 +45 опасность
перегрева
1004.2 1003.4 +31.0
03 15.06 Ю 3 20 км 9/9 600 м
[Cu Sc]
+34.4 +26.0 62 +50 +52 опасность
перегрева
1004.2 1003.4
06 15.06 ЮЗ 2 20 км 9/9 600 м
[Cu Sc]
+35.6 +26.0 58 +51 +53 опасность
перегрева
1003.4 1002.6
09 15.06 З 6 20 км 8/3 600 м
[Cb cap Cs]
+36.9 +23.7 47 +48 +49 опасность
перегрева
1001.3 1000.5
12 15.06 Ю 3 20 км 10/5 1500 м
[Sc Cs]
+33.6 +24.2 58 +46 +46 опасность
перегрева
1002.6 1001.8 +37.8
15 15.06 ЮЗ 5 20 км 10/6 1500 м
[Sc Cs]
+31.8 +23.7 62 +43 +43 опасность
перегрева
1004.0 1003.2
18 15.06 З 3 20 км 10/3 1500 м
[Sc Cs]
+30.8 +23.2 64 +41 +41 опасность
перегрева
1002.7 1001.9
21 15.06 ЮЗ 2 20 км 9/3 1500 м
[Sc Cs]
+29.8 +22.1 63 +38 +38 очень
душно
1002.3 1001.5
00 16.06 ЮЗ 3 20 км 10/3 600 м
[Cu Sc Cs]
+31.6 +23.5 62 +42 +44 опасность
перегрева
1003.4 1002.6 +29.7
03 16.06 З 5 20 км 9/1 600 м
[Cu med, cong Cs]
+35.7 +22.5 47 +45 +52 опасность
перегрева
1003.4 1002.6
06 16.06 Ю 4 20 км 9/3 600 м
[Cu Sc Cs]
+37.0 +23.6 46 +47 +55 опасность
перегрева
1002.2 1001.4
09 16.06 З 4 20 км 9/5 1500 м
[Sc Cs]
+36.7 +24.7 50 +49 +51 опасность
перегрева
1001.2 1000.4
12 16.06 Ю 2 20 км 9/9 600 м
[Cu Sc]
+33.2 +23.2 56 +44 +44 опасность
перегрева
1002.9 1002.1 +37.9
15 16.06 Ю 3 20 км 9/3 1500 м
[Sc Cs]
+32.0 +24.6 65 +45 +45 опасность
перегрева
1004.2 1003.4
18 16.06 Ю 2 20 км 9/3 1500 м
[Sc Cs]
+31.0 +24.4 68 +43 +43 опасность
перегрева
1003.0 1002.2
21 16.06 Ю 2 20 км 9/9 1500 м
[Sc]
+31.0 +23.9 66 +43 +43 опасность
перегрева
1002.5 1001.7
00 17.06 Ю 5 20 км 9/3 1500 м
[Sc Cs]
+31.3 +24.1 66 +43 +44 опасность
перегрева
1004.3 1003.5 +30.9
03 17.06 З 5 20 км 9/3 600 м
[Cu med, cong Cs]
+35.2 +25.2 56 +49 +54 опасность
перегрева
1004.4 1003.6
06 17.06 Ю 3 20 км 9/3 600 м
[Cu med, cong Cs]
+37.2 +23.9 47 +49 +58 опасность
перегрева
1002.5 1001.7
09 17.06 ЮЗ 5 20 км 9/1 600 м
[Cu med, cong Cs]
+36.5 +23.3 47 +47 +49 опасность
перегрева
1001.6 1000.8
12 17.06 ЮЗ 3 20 км зарница 9/1
[Cb cap Cs]
+32.8 +24.4 61 +45 +45 опасность
перегрева
1003.5 1002.7 +38.4
15 17.06 Ю 1 20 км 9/3 1500 м
[Sc Cs]
+31.5 +24.3 66 +44 +44 опасность
перегрева
1005.4 1004.6
18 17.06 Ю 1 20 км 9/9 600 м
[Cu Sc]
+30.8 +24.3 68 +43 +43 опасность
перегрева
1004.9 1004.1
21 17.06 ЮЗ 3 20 км 10/10 600 м
[Cu Sc]
+29.7 +24.2 72 +41 +41 опасность
перегрева
1004.1 1003.3
00 18.06 Ю 2 20 км 10/3 1500 м
[Sc Cs]
+29.8 +24.6 74 +42 +44 опасность
перегрева
1005.5 1004.7 +29.4
03 18.06 Ю 3 20 км 9/3 600 м
[Cu Sc Cs]
+33.4 +24.8 61 +47 +55 опасность
перегрева
1006.2 1005.4
06 18.06 В 2 20 км 6/1 600 м
[Cu med, cong Cs]
+35.4 +24.8 54 +48 +65 опасность
перегрева
1004.3 1003.5
09 18.06 Ю 4 20 км 9/8 600 м
[Cu Sc Cs]
+34.3 +25.3 60 +49 +50 опасность
перегрева
1002.9 1002.1
12 18.06 Ю 1 20 км 9/5
[Cu Sc Cs]
+32.6 +24.3 62 +45 +45 опасность
перегрева
1003.8 1003.0 +35.9
15 18.06 Ю 3 20 км 6/0
[Cs]
+31.0 +25.3 72 +45 +45 опасность
перегрева
1006.0 1005.2
18 18.06 Ю 2 20 км 3/0
[Ci fib]
+30.0 +24.8 74 +43 +43 опасность
перегрева
1005.6 1004.8
21 18.06 Ю 1 20 км 6/0
[Cs]
+29.0 +24.7 78 +41 +41 опасность
перегрева
1005.0 1004.2
00 19.06 Ю 3 20 км 8/3 600 м
[Cu Sc Cs]
+30.4 +24.4 70 +42 +44 опасность
перегрева
1006.3 1005.5 +28.5
03 19.06 ЮЗ 3 20 км 8/3 600 м
[Cu Sc Cs]
+33.5 +24.5 59 +46 +55 опасность
перегрева
1006.8 1006.0
06 19.06 Ю 2 20 км 8/4 600 м
[Cu med, cong Cs]
+36.3 +25.2 53 +50 +61 опасность
перегрева
1004.6 1003.8
09 19.06 СВ 3 20 км 8/3 600 м
[Cu med, cong Cs]
+34.2 +26.4 64 +51 +54 опасность
перегрева
1002.7 1001.9
12 19.06 ЮВ 2 20 км 9/3 600 м
[Cu med, cong Cs]
+31.8 +26.9 75 +49 +49 опасность
перегрева
1004.1 1003.3 +37.4
15 19.06 Ю 1 20 км 8/0
[Cs]
+31.3 +26.7 77 +49 +49 опасность
перегрева
1005.8 1005.0
18 19.06 Ю 2 20 км 6/0
[Cs]
+30.0 +26.9 84 +47 +47 опасность
перегрева
1005.6 1004.8
21 19.06 Ю 1 20 км 6/1 1500 м
[Sc Cs]
+29.4 +25.7 81 +44 +44 опасность
перегрева
1005.2 1004.4
00 20.06 Ю 1 20 км 8/1 600 м
[Cu med, cong Cs]
+31.2 +25.7 73 +46 +49 опасность
перегрева
1006.4 1005.6 +29.1
03 20.06 З 3 20 км 8/1 600 м
[Cu med, cong Cs]
+36.3 +24.3 50 +48 +59 опасность
перегрева
1006.3 1005.5
06 20.06 В 2 20 км 8/3 600 м
[Cu med, cong Cs]
+35.5 +25.6 57 +50 +63 опасность
перегрева
1005.0 1004.2
09 20.06 В 3 20 км 6/3 600 м
[Cu med, cong Cs]
+35.3 +26.9 62 +53 +56 опасность
перегрева
1003.3 1002.5
12 20.06 ЮВ 3 20 км 9/1 1500 м
[Sc Cs]
+32.6 +25.9 68 +48 +48 опасность
перегрева
1003.7 1002.9 +37.6
15 20.06 ЮВ 2 20 км 9/0
[Cs]
+31.8 +26.2 72 +48 +48 опасность
перегрева
1005.5 1004.7
18 20.06 ЮВ 1 20 км 8/0
[Cs]
+31.0 +26.2 76 +47 +47 опасность
перегрева
1004.5 1003.7

 

Местоположение метеостанции Донгхой (Вьетнам): широта 17.48 долгота 106.60 высота над уровнем моря 8 м.

В архиве по умолчанию представлена погода в Донгхое за последнюю неделю. Архивные данные за месяц целиком и за предыдущие месяцы, начиная с января 2011 года, Вы можете получить, выбрав интересующий диапазон дат из раскрывающегося списка и нажав кнопку "Ввод!".


*Определитесь, кто Вы:
робот инопланетянин человек

Внимание! Время в таблицах - всемирное. Для получения местного времени необходимо прибавить поправку, которая равна 7 ч.

Смотрите также архив погоды в соседних городах и на ближайших метеорологических станциях:

Погода в Хатине (Вьетнам) (122 км)
Погода в Хюэ (Вьетнам) (157 км)
Погода в Вине (Вьетнам) (164 км)
Погода в Сено (Лаос) (192 км)
Погода в Накхонпханом Агромете (Таиланд) (193 км)
Погода в Накхонпханоме (Таиланд) (193 км)
Погода в Сараване (Лаос) (198 км)
Погода в Тхакхэке (Лаос) (207 км)
Погода в Саваннакете (Лаос) (221 км)
Погода в Мукдахане (Таиланд) (227 км)

Пояснения к столбцам:

Ветер - указаны скорость ветра в м/с - средняя за 10 мин, порывы в срок и между сроками (в фигурных скобках) и направление, откуда дует ветер: С - северный, СВ - северо-восточный, В - восточный, ЮВ - юго-восточный, Ю - южный, ЮЗ - юго-западный, З - западный, СЗ - северо-западный.
Видимость - горизонтальная дальность видимости в метрах или километрах. При видимости от 1 до 10 км при отсутствии осадков обычно наблюдается дымка, при ухудшении видимости до 1 км и менее - туман. В сухую погоду видимость может ухудшаться дымом, пылью или мглою.
Явления - указаны атмосферные явления, наблюдавшиеся в срок или в последний час перед сроком; фигурными скобками обозначены явления, наблюдавшиеся между сроками (за 1-3 часа до срока); квадратными скобками обозначены град или гололедные отложения с указанием их диаметра в мм.
Облачность - указаны через наклонную черту общая и нижняя облачность в баллах и высота нижней границы облаков в метрах; квадратными скобками обозначены формы облаков: Ci - перистые, Cs - перисто-слоистые, Cc - перисто-кучевые, Ac - высококучевые, As - высокослоистые, Sc - слоисто-кучевые, Ns - слоисто-дождевые, Cu - кучевые, Cb - кучево-дождевые. Подробнее классификацию облаков см. в Атласе облаков (PDF).
T - Температура воздуха - температура, измеренная на высоте 2 м над землей.
Td - Температура точки росы - температура, при понижении до которой содержащийся в воздухе водяной пар достигнет насыщения.
f - Относительная влажность воздуха - влажноcть воздуха, измеренная на высоте 2 м над землей.
Te - Эффективная температура - температура, которую ощущает одетый по сезону человек в тени. Характеристика душности погоды. При расчете учитывается влияние влажности воздуха и скорости ветра на теплоощущения человека.
Tes - Эффективная температура на солнце - температура, которую ощущает человек, с поправкой на солнечный нагрев. Характеристика знойности погоды. Зависит от высоты солнца над горизонтом, облачности и скорости ветра. Ночью, в пасмурную погоду, а также при ветре 12 м/с и более поправка равна нулю.
P - Атмосферное давление - приведенное к уровню моря атмосферное давление.
Po - Атмосферное давление - измеренное на уровне метеостанции атмосферное давление.
Tmin - Минимальная температура - минимум температуры воздуха на высоте 2 м над землей.
Tmax - Максимальная температура - максимум температуры воздуха на высоте 2 м над землей.
R - Количество осадков - Количество выпавших осадков за период времени, мм. При наведении курсора мыши на число - период времени, за который выпало указанное количество осадков.
R24 - Количество осадков - Количество выпавших осадков за 24 часа, мм.
S - Снежный покров - Высота снежного покрова, см. При наведении курсора мыши на число - состояние снежного покрова и степень покрытия местности в баллах.